KUIPER-00057

Last updated on Thu Jul 03 2025 00:02:08 GMT+0000 (Coordinated Universal Time)

1 64517U 25134T 25183.58335648 .00016168 00000+0 48163-3 0 9995 2 64517 51.8705 286.9763 0006895 141.6907 310.4175 15.34813426 2301
UTC large
Height (km)
Speed (km/s)
/
Latitude / Longitude
Inclination (degrees)
Orbital Period (minutes)
Azimuth
Elevation
Range (km)
Doppler Factor

Next 0 passes for location: London (51.5072 / 0.1276)

Sorry there are no passes over London.